Location: Newark
(7.0858°N, 171.3717°E)
Time: 15:34:40
(UTC+00:00)

Altair - Pass Details

Date: 27 November 2020
Orbit: 1501 x 1682 km, 47.2° (Epoch: 20 January)

Event Time Altitude Azimuth Distance (km) Brightness Sun altitude
Exits shadow 17:40:59 - 322° (NW) 3,883 9.1 -12.2°
Reaches altitude 10° 17:41:35 10° 322° (NW) 3,692 9.0 -12.0°
Maximum altitude 17:50:57 84° 50° (NE) 1,578 7.6 -9.9°
Drops below altitude 10° 18:00:43 10° 138° (SE) 3,836 10.7 -7.6°
Sets 18:03:53 0° 138° (SE) 4,846 11.4 -6.9°
